ONEWEB-0458, 51648

Orbit data source: Space-Track

ONEWEB-0458, 51648 is a payload satellite owned by One Web (NAA) (UK) in LEO that was launched on Thu, 10 Feb 2022 UTC via a SOYUZ-ST-B launch vehicle from the French Guiana (FRGUI). Payload-class satellites include a variety of spacecraft equipped with specific instruments for various scientific and technological missions. These include communications satellites like Starlink; space stations such as the ISS; scientific satellites like the Hubble; Earth observation satellites from companies like Planet Labs, Umbra, and HawkEye 360; GPS; miniature CubeSats for education and research; and military/defense satellites.

Loading next visibility...
Identifier
51648, 2022-012AC
Orbit
LEO
Country
Flag of UKUK
Related business
Manufacturer
One Web
Mission
Operational Commercial Communications
Bus & Motor
ARROW, Unknown motor
Mass
148 kg wet, ~140 kg dry
Launch date (UTC)
2022-02-10 (4 years ago)
Launch vehicle
SOYUZ-ST-B
Launch site
French Guiana (FRGUI)
Object type
Payload
Rocket body
Debris
Shape & HBR
Trap Box + 2 Pan, 6.7 m
Radar Cross Section
3.464 m², Large (>1 m²)

Expand to show TLE details & history
Last TLE update: 2 days ago

TLE from 2 days ago
0 ONEWEB-0458
1 51648U 22012AC  26171.31961816  .00000218  00000-0  58918-3 0  9998
2 51648  87.8833  35.6356 0001819  77.4055 282.7275 13.10370149209719
Epoch: 2026-06-20T07:40Z
TLE epoch observation values (Epoch: 2026-06-20T07:40:15.009Z)
Latitude
-0.00006°
Longitude
12.03712°
Altitude
1,224.311 km
Speed
7.242 km/s
True Right ascension
02h 22m 32s
True Declination
0° 00' 00"
Sunlit
Object was in daylight at epoch
Visualization orbit readout
Latitude
Unknown
Longitude
Unknown
Altitude
Unknown
Speed
Unknown
Apparent Right ascension
Unknown
Apparent Declination
Unknown
Sunlit
N/A
Visualization observer readout
Local Sidereal Time
21:24:05
Azimuth
Unknown
Elevation
Unknown
Doppler factor
Unknown
Orbital elements
Apogee altitude
1,220.229 km
Perigee altitude
1,217.465 km
Semi-major axis
7,596.984 km
Eccentricity
0.00018
Inclination
87.8833°
RAAN
35.6356°
Arg. of periapsis
77.4055°
True anomaly
282.70717°
Mean anomaly
282.7275°
Eccentric anomaly
282.71733°
Mean motion
3.27779 °/min
Orbital period
109.83 mins
BSTAR
0.00058918
Loading maneuver chart data...
Computing Atmospheric mass density...
Loading historical data...
Loading historical data...
Loading historical data...
Loading historical data...
Loading historical data...
Loading historical data...
Loading historical data...

Documentation

Showing up to 5 results
|